Time,TemperatureF,DewpointF,PressureIn,WindDirection,WindDirectionDegrees,WindSpeedMPH,WindSpeedGustMPH,Humidity,HourlyPrecipIn,Conditions,Clouds,dailyrainin,SoftwareType,DateUTC
2013-05-01 00:00:00,49.8,-1.7,30.19,North,0,0.0,0.0,12,0.00,,,0.00,WUHU21623XXSP,2013-05-01 07:00:00,
2013-05-01 00:05:00,49.3,-1.8,30.19,North,0,0.0,0.0,12,0.00,,,0.00,WUHU21623XXSP,2013-05-01 07:05:00,
2013-05-01 00:10:00,49.3,-2.1,30.19,NE,45,2.7,2.7,12,0.00,,,0.00,WUHU21623XXSP,2013-05-01 07:10:00,
2013-05-01 00:18:00,48.7,-1.0,30.20,SSE,157,0.0,0.0,13,0.00,,,0.00,WUHU21623XXSP,2013-05-01 07:18:00,
2013-05-01 00:23:00,48.4,-1.2,30.19,East,90,0.0,0.0,13,0.00,,,0.00,WUHU21623XXSP,2013-05-01 07:23:00,
2013-05-01 00:28:00,48.0,0.0,30.19,West,270,0.0,0.0,14,0.00,,,0.00,WUHU21623XXSP,2013-05-01 07:28:00,
2013-05-01 00:52:00,46.0,-0.1,30.20,SSE,157,0.0,0.0,15,0.00,,,0.00,WUHU21623XXSP,2013-05-01 07:52:00,
2013-05-01 00:57:00,46.0,-0.1,30.20,SSE,157,0.0,0.0,15,0.00,,,0.00,WUHU21623XXSP,2013-05-01 07:57:00,
2013-05-01 01:02:00,45.5,-0.6,30.20,SSE,157,0.0,0.0,15,0.00,,,0.00,WUHU21623XXSP,2013-05-01 08:02:00,
2013-05-01 01:11:00,44.1,-1.5,30.21,SW,225,0.0,0.0,15,0.00,,,0.00,WUHU21623XXSP,2013-05-01 08:11:00,
2013-05-01 01:20:00,43.3,-0.8,30.21,NNW,337,0.0,0.0,16,0.00,,,0.00,WUHU21623XXSP,2013-05-01 08:20:00,
2013-05-01 01:41:00,42.4,-1.7,30.21,NNW,337,2.5,2.5,16,0.00,,,0.00,WUHU21623XXSP,2013-05-01 08:41:00,
2013-05-01 01:47:00,42.1,-0.5,30.21,NNW,337,2.2,2.5,17,0.00,,,0.00,WUHU21623XXSP,2013-05-01 08:47:00,
2013-05-01 01:57:00,41.7,-0.8,30.22,NW,315,4.0,4.0,17,0.00,,,0.00,WUHU21623XXSP,2013-05-01 08:57:00,
2013-05-01 02:02:00,41.7,-0.8,30.22,NW,315,4.0,4.0,17,0.00,,,0.00,WUHU21623XXSP,2013-05-01 09:02:00,
2013-05-01 02:11:00,41.4,-1.0,30.22,NNW,337,4.5,4.5,17,0.00,,,0.00,WUHU21623XXSP,2013-05-01 09:11:00,
2013-05-01 02:19:00,41.2,-1.2,30.22,WNW,292,2.7,4.5,17,0.00,,,0.00,WUHU21623XXSP,2013-05-01 09:19:00,
2013-05-01 02:45:00,41.2,-1.2,30.22,NNW,337,5.1,5.1,17,0.00,,,0.00,WUHU21623XXSP,2013-05-01 09:45:00,
2013-05-01 02:50:00,41.2,-1.2,30.22,NNW,337,4.5,5.1,17,0.00,,,0.00,WUHU21623XXSP,2013-05-01 09:50:00,
2013-05-01 02:55:00,41.2,-1.2,30.22,NW,315,2.9,4.5,17,0.00,,,0.00,WUHU21623XXSP,2013-05-01 09:55:00,
2013-05-01 03:00:00,41.2,-1.2,30.22,NW,315,2.9,2.9,17,0.00,,,0.00,WUHU21623XXSP,2013-05-01 10:00:00,
2013-05-01 03:05:00,41.2,-1.2,30.22,NW,315,0.7,2.9,17,0.00,,,0.00,WUHU21623XXSP,2013-05-01 10:05:00,
2013-05-01 03:11:00,41.0,-1.3,30.22,NW,315,2.9,6.5,17,0.00,,,0.00,WUHU21623XXSP,2013-05-01 10:11:00,
2013-05-01 03:16:00,40.8,-1.5,30.22,NNW,337,1.6,6.5,17,0.00,,,0.00,WUHU21623XXSP,2013-05-01 10:16:00,
2013-05-01 03:30:00,40.6,-1.5,30.23,North,0,3.6,3.6,17,0.00,,,0.00,WUHU21623XXSP,2013-05-01 10:30:00,
2013-05-01 03:36:00,40.6,-1.6,30.23,WNW,292,1.3,3.6,17,0.00,,,0.00,WUHU21623XXSP,2013-05-01 10:36:00,
2013-05-01 03:47:00,40.5,-1.8,30.24,NNW,337,1.6,1.6,17,0.00,,,0.00,WUHU21623XXSP,2013-05-01 10:47:00,
2013-05-01 03:52:00,40.3,-1.9,30.24,North,0,0.0,1.6,17,0.00,,,0.00,WUHU21623XXSP,2013-05-01 10:52:00,
2013-05-01 04:08:00,39.9,-0.8,30.24,NW,315,3.4,3.4,18,0.00,,,0.00,WUHU21623XXSP,2013-05-01 11:08:00,
2013-05-01 04:23:00,39.6,-1.0,30.25,NNW,337,2.9,2.9,18,0.00,,,0.00,WUHU21623XXSP,2013-05-01 11:23:00,
2013-05-01 04:38:00,39.4,-1.3,30.25,WNW,292,2.5,2.5,18,0.00,,,0.00,WUHU21623XXSP,2013-05-01 11:38:00,
2013-05-01 04:45:00,39.0,-1.6,30.25,North,0,0.0,2.5,18,0.00,,,0.00,WUHU21623XXSP,2013-05-01 11:45:00,
2013-05-01 04:55:00,39.0,-1.6,30.25,NNW,337,0.0,0.0,18,0.00,,,0.00,WUHU21623XXSP,2013-05-01 11:55:00,
2013-05-01 05:00:00,39.0,-1.6,30.25,NNW,337,0.0,0.0,18,0.00,,,0.00,WUHU21623XXSP,2013-05-01 12:00:00,
2013-05-01 05:06:00,39.0,-1.6,30.25,NW,315,2.2,2.2,18,0.00,,,0.00,WUHU21623XXSP,2013-05-01 12:06:00,
2013-05-01 06:02:00,36.9,-1.9,30.27,SE,135,0.0,0.0,19,0.00,,,0.00,WUHU21623XXSP,2013-05-01 13:02:00,
2013-05-01 06:17:00,35.6,-2.8,30.27,ENE,67,0.0,0.0,19,0.00,,,0.00,WUHU21623XXSP,2013-05-01 13:17:00,
2013-05-01 06:27:00,35.4,-1.6,30.28,North,0,0.0,0.0,20,0.00,,,0.00,WUHU21623XXSP,2013-05-01 13:27:00,
2013-05-01 06:40:00,35.4,-1.6,30.28,NNE,22,0.0,0.0,20,0.00,,,0.00,WUHU21623XXSP,2013-05-01 13:40:00,
2013-05-01 06:55:00,36.5,0.1,30.29,NW,315,0.0,0.0,21,0.00,,,0.00,WUHU21623XXSP,2013-05-01 13:55:00,
2013-05-01 07:00:00,36.5,0.1,30.29,NW,315,0.0,0.0,21,0.00,,,0.00,WUHU21623XXSP,2013-05-01 14:00:00,
2013-05-01 07:05:00,37.0,0.5,30.29,SE,135,0.0,0.0,21,0.00,,,0.00,WUHU21623XXSP,2013-05-01 14:05:00,
2013-05-01 07:49:00,40.5,4.3,30.31,SSE,157,0.0,0.0,22,0.00,,,0.00,WUHU21623XXSP,2013-05-01 14:49:00,
2013-05-01 07:56:00,41.2,5.0,30.30,WNW,292,0.0,0.0,22,0.00,,,0.00,WUHU21623XXSP,2013-05-01 14:56:00,
2013-05-01 08:19:00,43.2,5.7,30.30,NW,315,2.0,2.0,21,0.00,,,0.00,WUHU21623XXSP,2013-05-01 15:19:00,
2013-05-01 09:17:00,46.6,7.7,30.31,WNW,292,1.6,1.6,20,0.00,,,0.00,WUHU21623XXSP,2013-05-01 16:17:00,
2013-05-01 09:46:00,48.4,9.1,30.31,North,0,2.9,2.9,20,0.00,,,0.00,WUHU21623XXSP,2013-05-01 16:46:00,
2013-05-01 10:06:00,49.5,10.1,30.31,WNW,292,2.7,2.7,20,0.00,,,0.00,WUHU21623XXSP,2013-05-01 17:06:00,
2013-05-01 10:29:00,50.9,11.3,30.31,WNW,292,9.4,9.4,20,0.00,,,0.00,WUHU21623XXSP,2013-05-01 17:29:00,
2013-05-01 10:34:00,51.4,11.7,30.31,WNW,292,0.0,9.4,20,0.00,,,0.00,WUHU21623XXSP,2013-05-01 17:34:00,
2013-05-01 10:44:00,52.2,10.7,30.31,WNW,292,3.1,3.1,19,0.00,,,0.00,WUHU21623XXSP,2013-05-01 17:44:00,
2013-05-01 11:06:00,53.1,11.4,30.31,West,270,1.1,1.1,19,0.00,,,0.00,WUHU21623XXSP,2013-05-01 18:06:00,
2013-05-01 12:00:00,54.9,11.5,30.31,ENE,67,4.5,4.5,18,0.00,,,0.00,WUHU21623XXSP,2013-05-01 19:00:00,
2013-05-01 12:32:00,56.3,11.2,30.31,WNW,292,8.9,8.9,17,0.00,,,0.00,WUHU21623XXSP,2013-05-01 19:32:00,
2013-05-01 12:37:00,56.5,11.2,30.31,NW,315,5.8,8.9,17,0.00,,,0.00,WUHU21623XXSP,2013-05-01 19:37:00,
2013-05-01 13:03:00,57.4,8.9,30.31,NW,315,9.2,9.2,15,0.00,,,0.00,WUHU21623XXSP,2013-05-01 20:03:00,
2013-05-01 13:33:00,59.5,12.2,30.31,WNW,292,6.5,6.5,16,0.00,,,0.00,WUHU21623XXSP,2013-05-01 20:33:00,
2013-05-01 13:52:00,61.2,10.5,30.30,NNW,337,11.9,11.9,14,0.00,,,0.00,WUHU21623XXSP,2013-05-01 20:52:00,
2013-05-01 14:06:00,61.7,9.3,30.30,NW,315,8.1,8.1,13,0.00,,,0.00,WUHU21623XXSP,2013-05-01 21:06:00,
2013-05-01 14:14:00,61.7,9.3,30.30,NNW,337,8.3,8.3,13,0.00,,,0.00,WUHU21623XXSP,2013-05-01 21:14:00,
2013-05-01 14:46:00,62.4,8.3,30.30,North,0,11.2,11.2,12,0.00,,,0.00,WUHU21623XXSP,2013-05-01 21:46:00,
2013-05-01 15:07:00,62.4,6.8,30.29,NNE,22,9.6,9.6,11,0.00,,,0.00,WUHU21623XXSP,2013-05-01 22:07:00,
2013-05-01 15:20:00,62.6,6.9,30.29,NNE,22,0.9,0.9,11,0.00,,,0.00,WUHU21623XXSP,2013-05-01 22:20:00,
2013-05-01 15:27:00,62.8,7.1,30.29,NW,315,9.2,9.2,11,0.00,,,0.00,WUHU21623XXSP,2013-05-01 22:27:00,
2013-05-01 15:48:00,63.0,7.2,30.29,North,0,15.2,15.2,11,0.00,,,0.00,WUHU21623XXSP,2013-05-01 22:48:00,
2013-05-01 15:59:00,63.3,7.4,30.28,NW,315,15.7,15.7,11,0.00,,,0.00,WUHU21623XXSP,2013-05-01 22:59:00,
2013-05-01 16:05:00,63.1,7.3,30.28,NW,315,5.6,15.7,11,0.00,,,0.00,WUHU21623XXSP,2013-05-01 23:05:00,
2013-05-01 16:20:00,63.1,7.3,30.29,North,0,9.8,9.8,11,0.00,,,0.00,WUHU21623XXSP,2013-05-01 23:20:00,
2013-05-01 16:29:00,63.3,7.4,30.29,WNW,292,9.6,9.8,11,0.00,,,0.00,WUHU21623XXSP,2013-05-01 23:29:00,
2013-05-01 16:38:00,63.1,5.7,30.29,WNW,292,10.1,10.1,10,0.00,,,0.00,WUHU21623XXSP,2013-05-01 23:38:00,
2013-05-01 16:44:00,63.1,7.3,30.29,NNW,337,0.0,10.1,11,0.00,,,0.00,WUHU21623XXSP,2013-05-01 23:44:00,
2013-05-01 16:56:00,63.0,5.6,30.29,NW,315,5.8,5.8,10,0.00,,,0.00,WUHU21623XXSP,2013-05-01 23:56:00,
2013-05-01 17:01:00,63.0,5.6,30.29,North,0,10.5,10.5,10,0.00,,,0.00,WUHU21623XXSP,2013-05-02 00:01:00,
2013-05-01 17:08:00,63.0,5.6,30.29,North,0,10.3,10.5,10,0.00,,,0.00,WUHU21623XXSP,2013-05-02 00:08:00,
2013-05-01 17:13:00,63.0,5.6,30.29,North,0,10.3,10.3,10,0.00,,,0.00,WUHU21623XXSP,2013-05-02 00:13:00,
2013-05-01 17:19:00,63.0,5.6,30.29,NW,315,13.2,13.2,10,0.00,,,0.00,WUHU21623XXSP,2013-05-02 00:19:00,
2013-05-01 17:27:00,62.8,5.5,30.29,NW,315,17.0,17.0,11,0.00,,,0.00,WUHU21623XXSP,2013-05-02 00:27:00,
2013-05-01 17:38:00,62.2,5.1,30.29,WNW,292,11.4,11.4,11,0.00,,,0.00,WUHU21623XXSP,2013-05-02 00:38:00,
2013-05-01 17:43:00,62.1,6.5,30.29,WNW,292,8.3,11.4,11,0.00,,,0.00,WUHU21623XXSP,2013-05-02 00:43:00,
2013-05-01 17:48:00,62.1,6.5,30.29,WNW,292,13.0,13.0,11,0.00,,,0.00,WUHU21623XXSP,2013-05-02 00:48:00,
2013-05-01 17:53:00,61.9,6.3,30.29,NNW,337,10.3,13.0,11,0.00,,,0.00,WUHU21623XXSP,2013-05-02 00:53:00,
2013-05-01 18:03:00,61.7,6.2,30.29,North,0,18.1,18.1,11,0.00,,,0.00,WUHU21623XXSP,2013-05-02 01:03:00,
2013-05-01 18:12:00,61.2,5.9,30.29,WNW,292,15.0,18.1,11,0.00,,,0.00,WUHU21623XXSP,2013-05-02 01:12:00,
2013-05-01 18:29:00,60.6,5.3,30.30,West,270,2.9,2.9,11,0.00,,,0.00,WUHU21623XXSP,2013-05-02 01:29:00,
2013-05-01 18:40:00,60.4,5.2,30.31,NNE,22,4.7,4.7,11,0.00,,,0.00,WUHU21623XXSP,2013-05-02 01:40:00,
2013-05-01 18:46:00,60.4,5.2,30.31,NW,315,11.9,11.9,11,0.00,,,0.00,WUHU21623XXSP,2013-05-02 01:46:00,
2013-05-01 18:55:00,60.1,4.9,30.32,WNW,292,8.3,11.9,11,0.00,,,0.00,WUHU21623XXSP,2013-05-02 01:55:00,
2013-05-01 19:00:00,59.9,6.3,30.31,WNW,292,5.8,8.3,12,0.00,,,0.00,WUHU21623XXSP,2013-05-02 02:00:00,
2013-05-01 19:18:00,59.0,5.6,30.32,NW,315,5.1,5.1,12,0.00,,,0.00,WUHU21623XXSP,2013-05-02 02:18:00,
2013-05-01 19:25:00,58.8,5.4,30.32,WNW,292,3.6,5.1,12,0.00,,,0.00,WUHU21623XXSP,2013-05-02 02:25:00,
2013-05-01 19:30:00,58.5,5.1,30.32,NNW,337,7.8,7.8,12,0.00,,,0.00,WUHU21623XXSP,2013-05-02 02:30:00,
2013-05-01 19:38:00,57.9,4.7,30.32,North,0,2.2,7.8,12,0.00,,,0.00,WUHU21623XXSP,2013-05-02 02:38:00,
2013-05-01 19:59:00,56.8,3.9,30.34,NW,315,10.5,10.5,12,0.00,,,0.00,WUHU21623XXSP,2013-05-02 02:59:00,
2013-05-01 20:12:00,55.9,3.3,30.34,North,0,12.3,12.3,12,0.00,,,0.00,WUHU21623XXSP,2013-05-02 03:12:00,
2013-05-01 20:17:00,55.9,3.2,30.35,North,0,5.6,12.3,12,0.00,,,0.00,WUHU21623XXSP,2013-05-02 03:17:00,
2013-05-01 20:25:00,55.4,2.8,30.35,NW,315,0.0,5.6,12,0.00,,,0.00,WUHU21623XXSP,2013-05-02 03:25:00,
2013-05-01 20:30:00,55.2,2.7,30.35,WNW,292,0.0,0.0,12,0.00,,,0.00,WUHU21623XXSP,2013-05-02 03:30:00,
2013-05-01 20:40:00,54.7,3.8,30.35,NNE,22,0.0,0.0,13,0.00,,,0.00,WUHU21623XXSP,2013-05-02 03:40:00,
2013-05-01 20:51:00,54.1,3.3,30.36,South,180,0.0,0.0,13,0.00,,,0.00,WUHU21623XXSP,2013-05-02 03:51:00,
2013-05-01 20:59:00,53.2,4.1,30.37,SSE,157,0.0,0.0,14,0.00,,,0.00,WUHU21623XXSP,2013-05-02 03:59:00,
2013-05-01 21:01:00,53.2,4.1,30.37,SSE,157,0.0,0.0,14,0.00,,,0.00,WUHU21623XXSP,2013-05-02 04:01:00,
2013-05-01 21:06:00,52.7,3.7,30.37,WNW,292,0.0,0.0,14,0.00,,,0.00,WUHU21623XXSP,2013-05-02 04:06:00,
2013-05-01 21:16:00,51.6,4.3,30.37,ESE,112,0.0,0.0,15,0.00,,,0.00,WUHU21623XXSP,2013-05-02 04:16:00,
2013-05-01 21:27:00,50.5,3.5,30.38,West,270,0.0,0.0,15,0.00,,,0.00,WUHU21623XXSP,2013-05-02 04:27:00,
2013-05-01 21:42:00,49.1,3.8,30.39,WNW,292,2.0,2.0,16,0.00,,,0.00,WUHU21623XXSP,2013-05-02 04:42:00,
2013-05-01 21:51:00,48.7,3.5,30.39,WNW,292,0.0,2.0,16,0.00,,,0.00,WUHU21623XXSP,2013-05-02 04:51:00,
2013-05-01 22:01:00,48.0,2.9,30.39,ENE,67,0.0,0.0,16,0.00,,,0.00,WUHU21623XXSP,2013-05-02 05:01:00,
2013-05-01 22:24:00,46.8,3.4,30.40,North,0,0.0,0.0,17,0.00,,,0.00,WUHU21623XXSP,2013-05-02 05:24:00,
2013-05-01 23:16:00,44.4,1.5,30.41,SE,135,0.0,0.0,17,0.00,,,0.00,WUHU21623XXSP,2013-05-02 06:16:00,
2013-05-01 23:22:00,43.9,1.2,30.41,East,90,0.0,0.0,18,0.00,,,0.00,WUHU21623XXSP,2013-05-02 06:22:00,
2013-05-01 23:29:00,43.5,2.2,30.41,NNW,337,0.0,0.0,18,0.00,,,0.00,WUHU21623XXSP,2013-05-02 06:29:00,
2013-05-01 23:50:00,42.6,1.4,30.42,East,90,0.0,0.0,18,0.00,,,0.00,WUHU21623XXSP,2013-05-02 06:50:00,